EW1719 Weather Reports


Display with metric or nautical units.
time (UTC)temp
F
wind
direction
speed
MPH
gust
MPH
rain 1hr
in
rain 24hr
in
rain mn
in
humidity
%
barometer
mb
20260906120009 73 342 0.0 2.0 0.00 0.05 0.00 92 1012.4
20260906115638 73 342 1.0 2.0 0.00 0.05 0.00 92 1013.5
20260906114738 73 343 1.0 2.0 0.00 0.05 0.00 92 1013.4
20260906114505 73 342 0.0 2.0 0.00 0.05 0.00 92 1012.2
20260906113838 73 348 1.0 2.0 0.00 0.05 0.00 92 1013.3
20260906113008 73 350 0.0 0.0 0.00 0.05 0.00 92 1011.9
20260906112938 73 0 0.0 0.0 0.00 0.05 0.00 92 1013.0
20260906112038 73 350 0.0 2.0 0.00 0.05 0.00 92 1013.0
20260906111514 73 350 0.0 2.0 0.00 0.05 0.00 92 1011.9
20260906111138 73 348 1.0 2.0 0.00 0.05 0.00 92 1012.9
20260906110238 73 346 1.0 2.0 0.00 0.05 0.00 92 1012.9
20260906110003 73 348 0.0 2.0 0.00 0.05 0.00 92 1011.8
20260906105338 73 331 0.0 1.0 0.00 0.05 0.00 92 1012.9
20260906104511 73 331 0.0 1.0 0.00 0.05 0.00 92 1011.7
20260906104438 73 331 0.0 1.0 0.00 0.05 0.00 92 1012.9
20260906103538 73 331 0.0 1.0 0.00 0.05 0.00 92 1012.9
20260906103031 73 331 0.0 1.0 0.00 0.05 0.00 92 1011.7
20260906102659 73 331 1.0 2.0 0.00 0.05 0.00 92 1013.0
20260906101738 73 331 0.0 1.0 0.00 0.05 0.00 92 1012.9
20260906101518 73 331 0.0 1.0 0.00 0.05 0.00 92 1011.9
20260906100838 73 331 0.0 2.0 0.00 0.05 0.00 92 1012.9
20260906100021 73 331 0.0 2.0 0.00 0.05 0.00 92 1011.9
20260906095959 73 331 0.0 2.0 0.00 0.05 0.00 92 1013.0
20260906095038 73 331 0.0 1.0 0.00 0.05 0.00 92 1013.2
20260906094511 73 331 0.0 1.0 0.00 0.05 0.00 92 1012.1
20260906094159 73 330 0.0 1.0 0.00 0.05 0.00 92 1013.4
20260906093238 73 329 0.0 2.0 0.00 0.05 0.00 92 1013.4
20260906093019 72 360 0.0 1.0 0.00 0.05 0.00 92 1012.2
20260906092338 73 330 1.0 2.0 0.00 0.05 0.00 92 1013.3
20260906091506 72 329 0.0 2.0 0.00 0.05 0.00 92 1012.1
20260906091438 73 328 1.0 2.0 0.00 0.05 0.00 92 1013.2
20260906090559 73 326 1.0 2.0 0.00 0.05 0.00 92 1013.1
20260906090012 72 321 1.0 2.0 0.00 0.05 0.00 92 1012.0
20260906085638 73 327 1.0 2.0 0.00 0.05 0.00 92 1013.2
20260906084738 73 326 0.0 1.0 0.00 0.05 0.00 92 1013.3
20260906084603 72 360 0.0 1.0 0.00 0.05 0.00 92 1012.1
20260906083838 73 323 0.0 1.0 0.00 0.05 0.00 92 1013.0
20260906083008 72 321 0.0 2.0 0.00 0.05 0.00 92 1012.1
20260906082938 73 325 1.0 2.0 0.00 0.05 0.00 92 1013.3
20260906082038 73 319 1.0 1.0 0.00 0.05 0.00 92 1013.1
20260906081513 72 360 0.0 1.0 0.00 0.05 0.00 92 1011.7
20260906081139 73 318 0.0 1.0 0.00 0.05 0.00 92 1012.7
20260906080238 73 321 1.0 1.0 0.00 0.05 0.00 92 1012.6
20260906080002 72 318 0.0 1.0 0.00 0.05 0.00 92 1011.4
20260906075400 73 322 1.0 2.0 0.00 0.05 0.00 92 1012.5
20260906074507 72 316 0.0 1.0 0.00 0.05 0.00 91 1011.4
20260906074438 73 316 0.0 1.0 0.00 0.05 0.00 91 1012.6
20260906073600 73 319 0.0 2.0 0.00 0.05 0.00 91 1012.6
20260906073009 73 316 0.0 2.0 0.00 0.05 0.00 91 1011.5
20260906072638 73 317 1.0 2.0 0.00 0.05 0.00 91 1012.8
20260906071739 73 0 0.0 0.0 0.00 0.05 0.00 91 1012.6
20260906071514 73 63 0.0 0.0 0.00 0.05 0.00 91 1011.5
20260906070839 74 0 0.0 0.0 0.00 0.05 0.00 92 1013.2
20260906070004 73 65 0.0 0.0 0.00 0.05 0.00 92 1011.7
20260906065938 74 0 0.0 0.0 0.00 0.05 0.00 92 1012.9
20260906065039 74 0 0.0 0.0 0.00 0.05 0.00 91 1012.9
20260906064508 73 65 0.0 0.0 0.00 0.05 0.00 91 1011.6
20260906064139 74 0 0.0 0.0 0.00 0.05 0.00 91 1012.8
20260906063239 74 0 0.0 0.0 0.00 0.05 0.00 91 1012.8
20260906063011 73 65 0.0 0.0 0.00 0.05 0.00 91 1011.7
20260906062339 74 0 0.0 0.0 0.00 0.05 0.00 91 1012.9
20260906061523 74 65 0.0 0.0 0.00 0.05 0.00 91 1011.9
20260906061438 74 0 0.0 0.0 0.00 0.05 0.00 91 1013.0
20260906060539 74 66 0.0 1.0 0.00 0.05 0.00 91 1012.9
20260906060005 74 71 0.0 1.0 0.00 0.05 0.00 91 1011.7
20260906055639 74 57 0.0 1.0 0.00 0.05 0.00 91 1012.9
20260906054739 74 64 1.0 2.0 0.00 0.05 0.00 91 1013.0
20260906054522 74 69 0.0 2.0 0.00 0.05 0.00 91 1011.8
20260906053839 74 59 0.0 2.0 0.00 0.05 0.00 91 1013.1
20260906053009 74 57 0.0 1.0 0.00 0.05 0.00 90 1011.9
20260906052939 74 56 1.0 1.0 0.00 0.05 0.00 90 1013.2
20260906052039 75 57 0.0 2.0 0.00 0.05 0.00 90 1013.3
20260906051514 74 64 0.0 0.0 0.00 0.05 0.00 90 1012.2
20260906051139 75 45 0.0 2.0 0.00 0.05 0.00 90 1013.5
20260906050239 75 51 0.0 2.0 0.00 0.05 0.00 90 1013.6
20260906045339 75 71 0.0 1.0 0.00 0.05 0.00 90 1013.5
20260906044508 75 69 0.0 1.0 0.00 0.05 0.00 90 1012.4
20260906044439 75 65 0.0 1.0 0.00 0.05 0.00 90 1013.6
20260906043539 75 60 0.0 1.0 0.00 0.05 0.00 90 1013.7
20260906043020 75 59 0.0 1.0 0.00 0.05 0.00 89 1012.5
20260906042639 76 57 1.0 2.0 0.00 0.05 0.00 89 1013.6
20260906041739 76 58 0.0 1.0 0.00 0.05 0.00 89 1013.7
20260906041509 75 58 0.0 1.0 0.00 0.05 0.00 89 1012.5
20260906040839 76 0 0.0 0.0 0.00 0.05 0.00 89 1013.7
20260906040012 76 55 0.0 1.0 0.00 0.05 0.00 89 1012.4
20260906040000 76 54 0.0 1.0 0.00 0.05 0.00 89 1013.6
20260906035039 76 53 1.0 2.0 0.00 0.05 0.05 89 1013.6
20260906034517 76 53 0.0 2.0 0.00 0.05 0.05 89 1012.4
20260906034139 76 53 0.0 2.0 0.00 0.05 0.05 89 1013.8
20260906033239 77 62 0.0 1.0 0.00 0.05 0.05 89 1013.8
20260906033005 76 53 0.0 1.0 0.00 0.05 0.05 89 1012.5
20260906032339 77 77 1.0 2.0 0.00 0.05 0.05 88 1013.8
20260906031512 76 78 0.0 2.0 0.00 0.05 0.05 88 1012.6
20260906031500 77 78 1.0 2.0 0.00 0.05 0.05 88 1013.8
20260906030539 77 78 0.0 2.0 0.00 0.05 0.05 88 1013.9
20260906030017 77 79 0.0 1.0 0.00 0.05 0.05 88 1012.5
20260906025639 77 78 0.0 1.0 0.00 0.05 0.05 88 1013.7
20260906024739 77 86 0.0 2.0 0.00 0.05 0.05 88 1013.6
20260906024507 77 78 0.0 2.0 0.00 0.05 0.05 88 1012.3
20260906023839 77 135 0.0 1.0 0.00 0.05 0.05 87 1013.5
20260906023012 77 135 0.0 3.0 0.00 0.05 0.05 88 1012.1
20260906022939 78 346 1.0 3.0 0.00 0.05 0.05 87 1013.4
20260906022100 78 331 1.0 2.0 0.00 0.05 0.05 88 1013.7
20260906021606 78 331 1.0 2.0 0.00 0.05 0.05 88 1012.3
20260906021139 78 331 1.0 2.0 0.00 0.05 0.05 88 1013.6
20260906020239 78 331 0.0 2.0 0.00 0.05 0.05 87 1013.5
20260906020007 77 331 0.0 2.0 0.00 0.05 0.05 87 1012.3
20260906015339 78 330 0.0 2.0 0.00 0.05 0.05 87 1013.6
20260906014517 77 330 0.0 2.0 0.00 0.05 0.05 87 1012.3
20260906014439 78 330 0.0 2.0 0.00 0.05 0.05 87 1013.6
20260906013539 78 329 1.0 2.0 0.00 0.05 0.05 87 1013.5
20260906013031 78 330 1.0 2.0 0.00 0.05 0.05 87 1012.2
20260906012639 78 326 0.0 2.0 0.00 0.05 0.05 87 1013.3
20260906011739 78 20 1.0 3.0 0.00 0.05 0.05 86 1013.0
20260906011503 78 326 1.0 3.0 0.00 0.05 0.05 86 1011.7
20260906010900 78 76 1.0 2.0 0.00 0.05 0.05 86 1012.6
20260906010011 78 78 0.0 2.0 0.00 0.05 0.05 86 1011.0
20260906010000 79 79 0.0 2.0 0.00 0.05 0.05 86 1012.2
20260906005100 79 76 0.0 1.0 0.00 0.05 0.05 86 1011.7
20260906004515 79 76 0.0 2.0 0.00 0.05 0.05 86 1010.5
20260906004139 79 61 1.0 2.0 0.00 0.05 0.05 86 1011.8
20260906003300 80 61 1.0 1.0 0.00 0.05 0.05 86 1011.7
20260906003010 79 61 0.0 1.0 0.00 0.05 0.05 86 1010.4
20260906002339 80 61 0.0 2.0 0.00 0.05 0.05 85 1011.7
20260906001512 80 61 0.0 2.0 0.00 0.05 0.05 84 1010.5
20260906001439 80 65 1.0 2.0 0.00 0.05 0.05 84 1011.8
20260906000539 81 63 0.0 2.0 0.00 0.05 0.05 84 1011.9
20260906000016 81 57 0.0 1.0 0.00 0.05 0.05 84 1010.6
20260905235639 82 57 1.0 2.0 0.00 0.05 0.05 83 1011.9
20260905234739 83 64 0.0 2.0 0.00 0.05 0.05 83 1012.2
20260905234504 82 63 0.0 2.0 0.00 0.05 0.05 82 1010.8
20260905233839 83 63 0.0 1.0 0.00 0.05 0.05 79 1012.1
20260905233009 83 63 0.0 1.0 0.00 0.05 0.05 81 1010.6
20260905232939 83 65 0.0 1.0 0.00 0.05 0.05 80 1011.9
20260905232039 82 66 1.0 2.0 0.00 0.05 0.05 78 1011.7
20260905231515 82 67 1.0 2.0 0.00 0.05 0.05 80 1010.3
20260905231139 82 63 1.0 2.0 0.00 0.05 0.05 82 1011.6
20260905230239 82 62 1.0 2.0 0.00 0.05 0.05 81 1011.5
20260905230005 81 62 0.0 2.0 0.00 0.05 0.05 83 1010.1
20260905225400 81 48 1.0 2.0 0.00 0.05 0.05 83 1011.4
20260905224515 81 22 2.0 3.0 0.03 0.05 0.05 84 1010.4
20260905224439 81 56 2.0 3.0 0.03 0.05 0.05 84 1011.7
20260905223539 81 62 0.0 2.0 0.05 0.05 0.05 80 1011.5
20260905223014 81 63 0.0 3.0 0.05 0.05 0.05 80 1010.1
20260905222700 81 70 1.0 3.0 0.05 0.05 0.05 80 1011.5
20260905221800 82 71 1.0 4.0 0.05 0.05 0.05 81 1011.9
20260905221502 81 73 2.0 4.0 0.05 0.05 0.05 80 1010.5
20260905220839 82 121 1.0 2.0 0.05 0.05 0.05 79 1011.9
20260905220007 84 94 0.0 4.0 0.05 0.05 0.05 75 1010.8
20260905215939 85 109 2.0 8.0 0.05 0.05 0.05 75 1012.2
20260905215039 89 325 3.0 9.0 0.05 0.05 0.05 65 1012.1
20260905214512 92 271 2.0 10.0 0.02 0.02 0.02 65 1010.6
20260905214139 94 73 4.0 10.0 0.01 0.01 0.01 61 1011.7
20260905213239 95 60 2.0 6.0 0.00 0.00 0.00 55 1011.2
20260905213016 96 82 2.0 4.0 0.00 0.00 0.00 59 1009.9
20260905212339 97 274 0.0 2.0 0.00 0.00 0.00 54 1011.0
20260905211504 97 337 0.0 2.0 0.00 0.00 0.00 51 1009.8
20260905211439 97 338 1.0 2.0 0.00 0.00 0.00 50 1011.1
20260905210539 98 6 2.0 4.0 0.00 0.00 0.00 49 1011.0
20260905210016 98 39 1.0 5.0 0.00 0.00 0.00 48 1009.7
20260905205639 99 50 2.0 5.0 0.00 0.00 0.00 49 1010.9
20260905204800 99 47 2.0 4.0 0.00 0.00 0.00 48 1011.1
20260905204506 99 70 1.0 4.0 0.00 0.00 0.00 47 1009.8
20260905203839 99 75 1.0 4.0 0.00 0.00 0.00 47 1011.4
20260905203008 98 78 0.0 7.0 0.00 0.00 0.00 48 1010.1
20260905202940 99 80 2.0 7.0 0.00 0.00 0.00 49 1011.4
20260905202039 99 87 1.0 6.0 0.00 0.00 0.00 48 1011.5
20260905201517 98 360 2.0 6.0 0.00 0.00 0.00 50 1010.3
20260905201139 98 88 3.0 8.0 0.00 0.00 0.00 49 1011.6
20260905200239 98 81 3.0 6.0 0.00 0.00 0.00 50 1011.7
20260905200023 97 74 2.0 5.0 0.00 0.00 0.00 52 1010.4
20260905195340 97 89 2.0 7.0 0.00 0.00 0.00 53 1011.7
20260905194603 96 84 2.0 7.0 0.00 0.00 0.00 51 1010.5
20260905194440 96 74 2.0 7.0 0.00 0.00 0.00 51 1011.8
20260905193540 96 66 2.0 6.0 0.00 0.00 0.00 56 1011.9
20260905193104 96 66 2.0 5.0 0.00 0.00 0.00 54 1010.6
20260905192701 97 105 2.0 6.0 0.00 0.00 0.00 53 1012.0
20260905191801 97 93 3.0 7.0 0.00 0.00 0.00 50 1012.2
20260905191508 97 142 3.0 7.0 0.00 0.00 0.00 49 1010.9
20260905190840 97 176 2.0 4.0 0.00 0.00 0.00 49 1012.2
20260905190010 96 113 2.0 4.0 0.00 0.00 0.00 51 1011.0
20260905190001 97 109 2.0 6.0 0.00 0.00 0.00 52 1012.4
20260905185040 96 74 2.0 6.0 0.00 0.00 0.00 53 1012.4
20260905184521 96 76 2.0 6.0 0.00 0.00 0.00 53 1011.2
20260905184140 96 51 3.0 7.0 0.00 0.00 0.00 53 1012.6
20260905183239 96 52 2.0 6.0 0.00 0.00 0.00 53 1012.7
20260905183018 96 259 2.0 5.0 0.00 0.00 0.00 53 1011.3
20260905182340 96 117 2.0 6.0 0.00 0.00 0.00 54 1012.7
20260905181503 95 112 1.0 6.0 0.00 0.00 0.00 54 1011.8
20260905181501 95 113 2.0 5.0 0.00 0.00 0.00 54 1013.1
20260905180601 95 86 3.0 7.0 0.00 0.00 0.00 58 1013.2
20260905180009 95 77 2.0 7.0 0.00 0.00 0.00 58 1011.9
20260905175640 95 87 2.0 6.0 0.00 0.00 0.00 57 1013.3
20260905174740 96 84 3.0 6.0 0.00 0.00 0.00 59 1013.5
20260905174506 95 51 3.0 6.0 0.00 0.00 0.00 57 1012.2
20260905173840 95 78 2.0 6.0 0.00 0.00 0.00 58 1013.6
20260905173108 95 70 1.0 6.0 0.00 0.00 0.00 61 1012.3
20260905172940 95 71 3.0 8.0 0.00 0.00 0.00 61 1013.6
20260905172040 95 76 3.0 9.0 0.00 0.00 0.00 59 1013.7
20260905171505 94 69 2.0 9.0 0.00 0.00 0.00 61 1012.5
20260905171140 95 89 3.0 9.0 0.00 0.00 0.00 60 1013.8
20260905170240 94 87 2.0 9.0 0.00 0.00 0.00 60 1014.0
20260905170008 94 100 1.0 6.0 0.00 0.00 0.00 61 1012.6
20260905165340 94 79 2.0 6.0 0.00 0.00 0.00 62 1014.1
20260905164510 93 71 2.0 6.0 0.00 0.00 0.00 64 1012.9
20260905164440 93 70 2.0 6.0 0.00 0.00 0.00 64 1014.2
20260905163540 92 55 1.0 4.0 0.00 0.00 0.00 65 1014.2
20260905163013 92 57 0.0 6.0 0.00 0.00 0.00 65 1013.1
20260905162640 92 61 2.0 6.0 0.00 0.00 0.00 65 1014.5
20260905161740 92 68 2.0 5.0 0.00 0.00 0.00 67 1014.8
20260905161515 91 78 0.0 5.0 0.00 0.00 0.00 67 1013.5
20260905160840 92 71 2.0 5.0 0.00 0.00 0.00 67 1014.8
20260905160020 91 107 1.0 4.0 0.00 0.00 0.00 67 1013.5
20260905155940 91 80 1.0 4.0 0.00 0.00 0.00 67 1014.9
20260905155040 91 65 2.0 4.0 0.00 0.00 0.00 67 1015.1
20260905154518 90 70 2.0 4.0 0.00 0.00 0.00 67 1013.9
20260905154140 90 63 2.0 4.0 0.00 0.00 0.00 68 1015.2
20260905153240 89 208 2.0 3.0 0.00 0.00 0.00 68 1015.2
20260905153003 89 208 1.0 4.0 0.00 0.00 0.00 68 1014.0
20260905152340 89 221 2.0 5.0 0.00 0.00 0.00 68 1015.4
20260905151508 88 80 0.0 4.0 0.00 0.00 0.00 68 1014.0
20260905151440 89 118 2.0 4.0 0.00 0.00 0.00 68 1015.2
20260905150540 88 195 1.0 3.0 0.00 0.00 0.00 68 1015.4
20260905150008 88 142 0.0 3.0 0.00 0.00 0.00 68 1013.9
20260905145640 88 193 1.0 4.0 0.00 0.00 0.00 69 1015.4
20260905144740 87 240 1.0 4.0 0.00 0.00 0.00 69 1015.3
20260905144519 86 202 1.0 4.0 0.00 0.00 0.00 70 1014.1
20260905143840 86 208 2.0 6.0 0.00 0.00 0.00 72 1015.5
20260905143012 85 188 2.0 4.0 0.00 0.00 0.00 72 1014.2
20260905142940 86 230 1.0 4.0 0.00 0.00 0.00 72 1015.4
20260905142040 85 295 1.0 4.0 0.00 0.00 0.00 72 1015.5
20260905141512 84 165 1.0 3.0 0.00 0.00 0.00 73 1014.2
20260905141140 84 204 0.0 3.0 0.00 0.00 0.00 73 1015.5
20260905140301 84 72 0.0 2.0 0.00 0.00 0.00 77 1015.5
20260905140015 83 71 0.0 2.0 0.00 0.00 0.00 77 1014.2
20260905135340 83 73 0.0 2.0 0.00 0.00 0.00 78 1015.6
20260905134517 82 92 0.0 1.0 0.00 0.00 0.00 81 1014.4
20260905134440 82 92 0.0 1.0 0.00 0.00 0.00 81 1015.7
20260905133540 81 92 0.0 2.0 0.00 0.00 0.00 82 1015.8
20260905133102 80 92 0.0 2.0 0.00 0.00 0.00 83 1014.6
20260905132640 80 92 0.0 2.0 0.00 0.00 0.00 84 1015.9
20260905131740 78 91 0.0 1.0 0.00 0.00 0.00 89 1015.9
20260905131504 77 92 0.0 1.0 0.00 0.00 0.00 89 1014.6
20260905130840 77 0 0.0 0.0 0.00 0.00 0.00 92 1015.9
20260905130009 75 92 0.0 0.0 0.00 0.00 0.00 92 1014.7
20260905125940 76 0 0.0 0.0 0.00 0.00 0.00 92 1016.0
20260905125040 75 0 0.0 0.0 0.00 0.00 0.00 93 1015.9
20260905124520 74 91 0.0 0.0 0.00 0.00 0.00 93 1014.7
20260905124201 74 0 0.0 0.0 0.00 0.00 0.00 93 1015.9
20260905123240 74 92 0.0 1.0 0.00 0.00 0.00 93 1015.9
20260905123013 74 91 0.0 1.0 0.00 0.00 0.00 93 1014.7
20260905122340 74 0 0.0 0.0 0.00 0.00 0.00 93 1015.9
20260905121603 73 94 0.0 0.0 0.00 0.00 0.00 93 1014.6
20260905121440 73 101 0.0 1.0 0.00 0.00 0.00 92 1015.8
20260905120540 73 105 0.0 2.0 0.00 0.00 0.00 92 1015.7